Regional Weather Roundup
Issued by NWS Upton, NY

Current Version | Previous Version | Graphics & Text | Print | Product List | Glossary Off
Versions: 1 2 3 4 5 6 7 8 9 10 11 12 13 14 15 16 17 18 19 20 21 22 23 24 25 26 27 28 29 30 31 32 33 34 35 36 37 38 39 40 41 42 43 44 45 46 47 48 49 50

134
ASUS41 KOKX 110508
RWROKX

REGIONAL WEATHER ROUNDUP
NATIONAL WEATHER SERVICE NEW YORK NY
1200 AM EST MON DEC 11 2017

NOTE: "FAIR" INDICATES FEW OR NO CLOUDS BELOW 12,000 FEET WITH NO
SIGNIFICANT WEATHER AND/OR OBSTRUCTIONS TO VISIBILITY.

NYZ071-072-176-178-NJZ106-104-110600-
NEW YORK CITY METRO AREA

CITY           SKY/WX    TMP DP  RH WIND       PRES   REMARKS
Central Park   CLOUDY    36  21  54 VRB6G18   30.03S WCI  31
Bronx Bot Gard   N/A     36  21  55 SW13      30.01F WCI  27
Bronx Lehman C   N/A     36  21  55 SW9         N/A  WCI  29
LaGuardia APRT CLOUDY    37  21  52 SW12      30.01S WCI  29
Queens College   N/A     36  23  60 SW8         N/A  WCI  29
Kennedy INTL   CLOUDY    36  26  67 SW17      30.04S WCI  26
Breezy Point     N/A     36 N/A N/A SW12G18     N/A  WCI  27
Brooklyn Coll    N/A     36  25  64 SW10        N/A  WCI  28
Staten Island    N/A     34  25  69 S5          N/A  WCI  30
Newark/Liberty CLOUDY    34  23  64 SW10      30.02S WCI  26
Teterboro      CLOUDY    35  22  58 SW8       30.01S WCI  29
$$

NYZ177-179-078>081-110600-
LONG ISLAND NEW YORK

CITY           SKY/WX    TMP DP  RH WIND       PRES   REMARKS
Jones Beach      N/A     37 N/A N/A W16G23      N/A  WCI  28
Wantagh          N/A     36  23  60 W8          N/A  WCI  29
Matinecock PT    N/A     37 N/A N/A SW24        N/A  WCI  26
Farmingdale    CLOUDY    35  24  64 W10       30.02S WCI  27
MacArthur/ISP  CLOUDY    36  23  59 W10       30.01S WCI  28
Shirley        CLOUDY    36  23  59 W8        30.02S WCI  30
Mt Sinai Harb    N/A    N/A N/A N/A SW3         N/A
Westhampton    CLOUDY    36  21  54 W12       30.02S WCI  28
East Hampton   CLOUDY    36  20  54 W9        30.01R WCI  29
Southold         N/A     36  25  64 SW7         N/A  WCI  30
Montauk          N/A     40  22  48 W13G26    30.00F WCI  32
$$

NYZ052-065-067-110600-
HUDSON VALLEY

CITY           SKY/WX    TMP DP  RH WIND       PRES   REMARKS
White Plains   CLOUDY    33  20  58 SW3       29.98S
Larchmont Harb   N/A     36 N/A N/A SW16        N/A  WCI  26
Croton On Huds   N/A     36 N/A N/A SW7         N/A  WCI  30
Somers           N/A     32  21  64 SW2         N/A
Brewster         N/A     32  21  64 SW2         N/A
Newburgh       CLOUDY    32  23  69 W9        29.97R WCI  24
Montgomery     CLOUDY    32  21  64 SW9       29.96R WCI  24
Otisville        N/A     32  21  64 SW3         N/A
Warwick          N/A     32  19  59 W7          N/A  WCI  26
Suffern          N/A     32  21  64 SW3         N/A
Poughkeepsie   CLOUDY    34  19  54 VRB3      29.97R
Albany         CLOUDY    32  21  64 S8        29.92R WCI  25
$$

NJZ001-105-106-008-010-013-015-019>022-104-110600-
NEW JERSEY

CITY           SKY/WX    TMP DP  RH WIND       PRES   REMARKS
Newark/Liberty CLOUDY    34  23  64 SW10      30.02S WCI  26
Teterboro      CLOUDY    35  22  58 SW8       30.01S WCI  29
Caldwell       CLOUDY    33  20  58 SW3       30.01S
Somerville     CLOUDY    30  25  81 S3        30.00F
Linden         MOCLDY    34  23  64 CALM      30.02F
Perth Amboy      N/A     34 N/A N/A SW7         N/A  WCI  28
Sussex         CLOUDY    32  20  61 SW6       29.97S WCI  26
Andover        NOT AVBL
Trenton        CLOUDY    34  22  61 SW6       30.02F WCI  29
Millville      CLOUDY    36  30  79 SW7       30.05F WCI  30
Atlantic City  CLOUDY    35  29  78 SW6       30.06S WCI  30
Wrightstown    CLOUDY    33  25  74 S7        30.01F WCI  26
Toms River     CLOUDY    32  26  78 SW6       30.05F WCI  26
Belmar         CLOUDY    33  24  69 SW7       30.04F WCI  27
$$

PAZ047>061-062-071-110600-
EASTERN PENNSYLVANIA

CITY           SKY/WX    TMP DP  RH WIND       PRES   REMARKS
Philadelphia   CLOUDY    36  26  67 S9        30.05S WCI  29
Allentown      CLOUDY    32  21  64 SW7       30.00S WCI  26
Scranton       CLOUDY    31  19  61 SW8       29.94S WCI  23
$$

CTZ002-004>006-009-010-012-RIZ004-006-007-MAZ004-011-015-110600-
SOUTHERN NEW ENGLAND
 IN CT

CITY           SKY/WX    TMP DP  RH WIND       PRES   REMARKS
Bradley INTL   CLOUDY    33  22  63 W12       29.95S WCI  24
Hartford       CLOUDY    35  22  58 SW8       29.97S WCI  29
Danbury        CLOUDY    33  21  61 SW8       29.98R WCI  26
Wtrbury/Oxford CLOUDY    31  22  69 SW5       29.96S WCI  26
Norwalk Harbor   N/A     36 N/A N/A W16         N/A  WCI  26
Bridgeport     CLOUDY    37  22  54 W12G20    30.00R WCI  29
Meriden        CLOUDY    32  22  66 SE3       29.98S
New Haven      CLOUDY    37  21  52 W10       29.99S WCI  30
Chester        FAIR      34  19  55 W8G14     29.97R WCI  27
Groton         CLOUDY    37  20  50 W13       29.99R WCI  29
Wilimantic     CLOUDY    34  23  64 SW6       29.97S WCI  29

 IN RI

CITY           SKY/WX    TMP DP  RH WIND       PRES   REMARKS
Providence     CLOUDY    35  24  64 SW9       29.98S WCI  28
Block Island     N/A    N/A N/A N/A MISG        N/A
Westerly       CLOUDY    37  22  54 W5        29.99S WCI  33
 IN MA

CITY           SKY/WX    TMP DP  RH WIND       PRES   REMARKS
Boston         CLOUDY    34  24  67 SW9       29.95F WCI  27
Worcester      PTCLDY    28  19  69 SW13      29.90S WCI  17
Westfield      CLOUDY    31  22  69 SW6       29.94R WCI  25
Provincetown   CLOUDY    38  25  59 W18       29.97  WCI  28
Nantucket      CLOUDY    41  30  65 W12       29.98F
$$

ANZ330-335-338-340-345-350-353-355-110600-
COASTAL MARINE OBSERVATIONS


STATION/POSITION TIME  SKY/WX   TEMP    WIND        PRES    VSBY  WAVE
                                AIR SEA DIR/SP/G                  HT/PER
                 (UTC)          (F)     (DEG/KT/KT) (MB)    (MI)  (FT/S)
NY HARB ENTRANCE 0350            40 52  250/ 19/ 23 1016.2          4/10
20 S FIRE ISLAND 0350            41 53  270/ 21/ 25 1016.8          5/10
GREAT SOUTH BAY  0430            38 45  270/ 16/ 17   N/A
HUDSON CANYON    0350            42 56  260/ 19/ 23 1017.2          7/ 9
KINGS POINT      0424            37 45  270/ 10/ 15 1017.2
EXECUTION ROCKS  0415            39     220/ 16/ 19   N/A
WESTERN LI SOUND 0349            39     250/ 17/ 25   N/A           2/ 3
CENTRAL LI SOUND 0400            40     240/ 17/ 23   N/A           4
ROBBINS REEF     0442            36     220/ 10/ 14 1017.3
$$


>>>>>>>>>>>>>>>>>>>>>>>>>>>> KEY <<<<<<<<<<<<<<<<<<<<<<<<<<<
>                                                          <
>     SKY/WX - Sky Condition/Present Weather               <
>     TMP    - Temperature in Fahrenheit                   <
>     DP     - Dew Point in Fahrenheit                     <
>     RH     - Relative Humidity in Percent                <
>     WIND   - Direction (from) and Speed in MPH           <
>     PRES   - Mean Sea Level Pressure (inches of Hg)      <
>     WCI    - Wind Chill Index                            <
>     VSB    - VISIBILITY IN MILES                         <
>     HX     - HEAT INDEX                                  <
>     TC     - TEMPERATURE IN CELSIUS                      <
>     VRB    - VARIABLE WIND DIRECTION                     <
>                                                          <
>>>>>>>>>>>>>>>>>>>>>>>>>>>> KEY <<<<<<<<<<<<<<<<<<<<<<<<<<<




USA.gov is the U.S. government's official web portal to all federal, state and local government web resources and services.